TimeEST,TemperatureF,Dew PointF,Humidity,Sea Level PressureIn,VisibilityMPH,Wind Direction,Wind SpeedMPH,Gust SpeedMPH,PrecipitationIn,Events,Conditions,WindDirDegrees,DateUTC
12:55 AM,32.2,24.8,74,30.07,10.0,SSE,17.3,25.3,N/A,,Overcast,150,2013-02-23 05:55:00
1:14 AM,32.0,24.8,75,30.06,10.0,SSE,16.1,-,N/A,,Overcast,150,2013-02-23 06:14:00
1:55 AM,32.4,24.6,73,30.06,10.0,SSE,15.0,-,N/A,,Overcast,150,2013-02-23 06:55:00
2:55 AM,32.2,25.0,75,30.04,10.0,SSE,9.2,-,N/A,,Overcast,150,2013-02-23 07:55:00
3:55 AM,33.1,25.3,73,30.02,10.0,SSE,13.8,-,N/A,,Overcast,150,2013-02-23 08:55:00
4:55 AM,32.9,26.1,76,30.04,10.0,South,9.2,-,N/A,,Overcast,170,2013-02-23 09:55:00
4:56 AM,33.8,26.6,75,30.04,10.0,South,10.4,-,N/A,,Overcast,170,2013-02-23 09:56:00
5:01 AM,32.0,26.6,80,30.03,10.0,SSE,10.4,-,N/A,,Overcast,150,2013-02-23 10:01:00
5:08 AM,33.8,26.6,75,30.03,10.0,SSE,9.2,-,N/A,,Overcast,150,2013-02-23 10:08:00
5:54 AM,32.0,26.6,80,30.02,6.0,SSE,9.2,-,N/A,Snow,Light Snow,150,2013-02-23 10:54:00
5:55 AM,31.6,27.1,83,30.02,6.0,SSE,10.4,-,0.00,Snow,Light Snow,150,2013-02-23 10:55:00
5:57 AM,32.0,26.6,80,30.02,6.0,SE,10.4,-,N/A,Snow,Light Snow,140,2013-02-23 10:57:00
6:28 AM,32.0,26.6,80,30.02,10.0,SE,9.2,-,N/A,,Overcast,140,2013-02-23 11:28:00
6:30 AM,32.0,26.6,80,30.02,10.0,SSE,6.9,-,N/A,Rain,Light Rain,150,2013-02-23 11:30:00
6:55 AM,31.8,27.3,83,30.02,9.0,SSE,10.4,-,0.00,Snow,Light Snow,150,2013-02-23 11:55:00
7:19 AM,30.2,28.4,93,30.01,4.0,SE,8.1,-,N/A,Snow,Light Snow,140,2013-02-23 12:19:00
7:26 AM,30.2,30.2,100,30.01,3.0,SE,9.2,-,N/A,Snow,Light Snow,140,2013-02-23 12:26:00
7:27 AM,30.2,30.2,100,30.01,2.5,SE,8.1,-,N/A,Snow,Light Snow,130,2013-02-23 12:27:00
7:29 AM,30.2,30.2,100,30.01,2.0,SE,8.1,-,N/A,Snow,Light Snow,140,2013-02-23 12:29:00
7:33 AM,30.2,30.2,100,30.01,2.0,SE,8.1,-,N/A,Snow,Light Snow,140,2013-02-23 12:33:00
7:34 AM,30.2,30.2,100,30.01,2.5,SE,8.1,-,N/A,Snow,Light Snow,140,2013-02-23 12:34:00
7:36 AM,30.2,30.2,100,30.01,3.0,SE,9.2,-,N/A,Snow,Light Snow,140,2013-02-23 12:36:00
7:43 AM,30.2,30.2,100,30.01,10.0,SSE,6.9,-,N/A,,Overcast,150,2013-02-23 12:43:00
7:55 AM,31.1,29.7,94,30.01,10.0,SSE,9.2,-,0.00,,Overcast,150,2013-02-23 12:55:00
8:00 AM,32.0,28.4,87,30.01,10.0,SSE,9.2,-,N/A,Snow,Light Snow,150,2013-02-23 13:00:00
8:09 AM,32.0,28.4,87,30.01,10.0,SSE,9.2,-,N/A,,Overcast,150,2013-02-23 13:09:00
8:55 AM,32.4,28.9,87,30.00,10.0,SSE,12.7,-,0.00,,Overcast,150,2013-02-23 13:55:00
9:27 AM,32.0,30.2,93,30.00,10.0,SSE,9.2,-,N/A,,Overcast,150,2013-02-23 14:27:00
9:30 AM,32.0,30.2,93,30.00,10.0,SSE,9.2,-,N/A,,Overcast,150,2013-02-23 14:30:00
9:55 AM,33.1,30.0,89,29.99,10.0,SE,9.2,-,0.00,Snow,Light Snow,140,2013-02-23 14:55:00
10:39 AM,32.0,32.0,100,29.98,3.0,SE,8.1,-,N/A,Snow,Light Snow,130,2013-02-23 15:39:00
10:42 AM,32.0,32.0,100,29.98,3.0,SE,6.9,-,N/A,Snow,Light Snow,140,2013-02-23 15:42:00
10:46 AM,32.0,32.0,100,29.98,3.0,SE,6.9,-,N/A,Snow,Light Snow,130,2013-02-23 15:46:00
10:47 AM,32.0,32.0,100,29.98,3.0,SE,8.1,-,N/A,Snow,Light Snow,130,2013-02-23 15:47:00
10:55 AM,32.5,32.4,99,29.97,3.0,SE,8.1,-,0.02,Snow,Light Snow,130,2013-02-23 15:55:00
11:20 AM,33.8,32.0,93,29.96,7.0,SE,9.2,-,N/A,Snow,Light Snow,130,2013-02-23 16:20:00
11:21 AM,33.8,32.0,93,29.96,7.0,SE,9.2,-,N/A,Snow,Light Snow,130,2013-02-23 16:21:00
11:38 AM,33.8,33.8,100,29.96,10.0,SE,10.4,-,N/A,,Overcast,130,2013-02-23 16:38:00
11:55 AM,33.4,32.9,98,29.96,10.0,SE,10.4,-,0.02,,Overcast,130,2013-02-23 16:55:00
11:57 AM,33.8,33.8,100,29.96,10.0,SE,9.2,-,N/A,,Overcast,130,2013-02-23 16:57:00
12:45 PM,33.8,33.8,100,29.94,10.0,SSE,5.8,-,N/A,,Overcast,150,2013-02-23 17:45:00
12:55 PM,34.9,33.1,93,29.94,10.0,SSE,5.8,-,N/A,,Overcast,150,2013-02-23 17:55:00
1:13 PM,35.6,33.8,93,29.93,10.0,SSE,6.9,-,N/A,,Overcast,160,2013-02-23 18:13:00
1:45 PM,35.6,33.8,93,29.92,10.0,SSE,6.9,-,N/A,,Overcast,160,2013-02-23 18:45:00
1:55 PM,35.1,33.8,95,29.92,10.0,SSE,8.1,-,0.00,,Overcast,150,2013-02-23 18:55:00
2:55 PM,35.1,34.0,96,29.91,10.0,SSE,6.9,-,N/A,,Overcast,150,2013-02-23 19:55:00
3:28 PM,35.6,33.8,93,29.90,10.0,SE,6.9,-,N/A,,Overcast,140,2013-02-23 20:28:00
3:55 PM,34.5,34.2,99,29.90,8.0,SSE,6.9,-,N/A,,Overcast,150,2013-02-23 20:55:00
4:36 PM,33.8,33.8,100,29.90,7.0,SSE,6.9,-,N/A,,Overcast,150,2013-02-23 21:36:00
4:55 PM,34.2,34.2,100,29.90,9.0,SSE,6.9,-,0.01,,Overcast,150,2013-02-23 21:55:00
5:00 PM,33.8,33.8,100,29.89,10.0,SE,8.1,-,N/A,,Overcast,140,2013-02-23 22:00:00
5:12 PM,33.8,33.8,100,29.89,10.0,SE,6.9,-,N/A,,Overcast,140,2013-02-23 22:12:00
5:13 PM,33.8,33.8,100,29.89,10.0,SE,6.9,-,N/A,,Overcast,140,2013-02-23 22:13:00
5:15 PM,33.8,33.8,100,29.89,10.0,SSE,5.8,-,N/A,,Overcast,150,2013-02-23 22:15:00
5:21 PM,33.8,33.8,100,29.89,10.0,SE,6.9,-,N/A,,Overcast,140,2013-02-23 22:21:00
5:55 PM,34.0,34.0,100,29.89,10.0,SSE,6.9,-,0.00,,Overcast,150,2013-02-23 22:55:00
6:03 PM,33.8,33.8,100,29.89,10.0,SE,5.8,-,N/A,,Overcast,140,2013-02-23 23:03:00
6:55 PM,33.8,33.8,100,29.89,10.0,SE,4.6,-,N/A,,Overcast,140,2013-02-23 23:55:00
6:59 PM,33.8,33.8,100,29.89,10.0,SE,4.6,-,N/A,,Overcast,140,2013-02-23 23:59:00
7:09 PM,33.8,33.8,100,29.89,10.0,SE,5.8,-,N/A,,Overcast,140,2013-02-24 00:09:00
7:13 PM,33.8,33.8,100,29.88,10.0,SE,5.8,-,N/A,,Overcast,140,2013-02-24 00:13:00
7:36 PM,33.8,33.8,100,29.89,9.0,SSE,5.8,-,N/A,,Overcast,160,2013-02-24 00:36:00
7:42 PM,33.8,33.8,100,29.89,7.0,SSE,5.8,-,N/A,,Overcast,160,2013-02-24 00:42:00
7:49 PM,33.8,33.8,100,29.89,6.0,South,5.8,-,N/A,,Overcast,170,2013-02-24 00:49:00
7:55 PM,33.6,33.6,100,29.89,7.0,SSE,5.8,-,N/A,,Overcast,160,2013-02-24 00:55:00
7:59 PM,33.8,33.8,100,29.89,7.0,SSE,5.8,-,N/A,,Overcast,160,2013-02-24 00:59:00
8:01 PM,33.8,33.8,100,29.89,7.0,South,4.6,-,N/A,,Overcast,170,2013-02-24 01:01:00
8:23 PM,33.8,33.8,100,29.90,7.0,Calm,Calm,-,N/A,,Overcast,0,2013-02-24 01:23:00
8:55 PM,33.8,33.8,100,29.90,7.0,Calm,Calm,-,N/A,,Overcast,0,2013-02-24 01:55:00
9:13 PM,33.8,33.8,100,29.89,7.0,Calm,Calm,-,N/A,,Overcast,0,2013-02-24 02:13:00
9:21 PM,33.8,33.8,100,29.88,10.0,South,3.5,-,N/A,,Overcast,180,2013-02-24 02:21:00
9:31 PM,33.8,33.8,100,29.88,10.0,South,3.5,-,N/A,,Overcast,190,2013-02-24 02:31:00
9:37 PM,33.8,33.8,100,29.88,10.0,SSW,3.5,-,N/A,,Overcast,210,2013-02-24 02:37:00
9:41 PM,33.8,33.8,100,29.88,10.0,SSW,3.5,-,N/A,,Overcast,210,2013-02-24 02:41:00
9:44 PM,33.8,33.8,100,29.88,10.0,SSW,3.5,-,N/A,,Overcast,200,2013-02-24 02:44:00
9:55 PM,33.4,33.4,100,29.87,9.0,Calm,Calm,-,N/A,,Overcast,0,2013-02-24 02:55:00
9:57 PM,33.8,33.8,100,29.87,9.0,Calm,Calm,-,N/A,,Overcast,0,2013-02-24 02:57:00
10:05 PM,33.8,33.8,100,29.87,8.0,Calm,Calm,-,N/A,,Overcast,0,2013-02-24 03:05:00
10:18 PM,33.8,33.8,100,29.88,10.0,West,9.2,-,N/A,,Overcast,260,2013-02-24 03:18:00
10:19 PM,33.8,33.8,100,29.88,10.0,West,10.4,-,N/A,,Overcast,260,2013-02-24 03:19:00
10:21 PM,33.8,33.8,100,29.88,10.0,West,10.4,-,N/A,,Overcast,260,2013-02-24 03:21:00
10:22 PM,33.8,33.8,100,29.88,10.0,West,10.4,-,N/A,,Overcast,260,2013-02-24 03:22:00
10:24 PM,33.8,33.8,100,29.88,10.0,WSW,9.2,-,N/A,,Overcast,250,2013-02-24 03:24:00
10:26 PM,33.8,33.8,100,29.88,10.0,West,8.1,-,N/A,,Light Drizzle,260,2013-02-24 03:26:00
10:40 PM,33.8,33.8,100,29.88,8.0,WSW,8.1,-,N/A,,Overcast,240,2013-02-24 03:40:00
10:55 PM,32.5,32.5,100,29.88,8.0,WSW,6.9,-,0.01,,Overcast,250,2013-02-24 03:55:00
11:11 PM,32.0,32.0,100,29.88,9.0,WSW,8.1,-,N/A,Rain,Light Rain,250,2013-02-24 04:11:00
11:14 PM,32.0,32.0,100,29.88,9.0,West,8.1,-,N/A,,Light Drizzle,260,2013-02-24 04:14:00
11:24 PM,32.0,32.0,100,29.88,10.0,WSW,6.9,-,N/A,,Overcast,240,2013-02-24 04:24:00
11:55 PM,31.8,31.8,100,29.87,10.0,SW,5.8,-,0.00,,Overcast,230,2013-02-24 04:55:00